User: anonymous   Login
Location: Peebles
(55.6412°N, 3.1714°W)
Time: 22:03:33
(UTC+01:00)
Language:

USA 238 DEB - Orbit

View from above orbital plane
View from above orbital plane
View from above satellite
View from above satellite

Ground track
Ground track

The orbit data is extracted from the following two-line orbital elements,

1 38773U 12048P   22124.86577826 0.00000000  00000-0  00000-0 0    06
2 38773  63.4287  83.4330 0182451 359.4439   0.5561 13.40837584    09
Epoch (UTC): 04 May 2022 20:46:43
Eccentricity: 0.0182451
inclination: 63.4287°
perigee height: 969 km
apogee height: 1243 km
right ascension of ascending node: 83.4330°
argument of perigee: 359.4439°
revolutions per day: 13.40837584
mean anomaly at epoch: 0.5561°
orbit number at epoch: 0

The dashed part of the orbit path shows where the satellite is in the earth's shadow,  

DLR